| time (UTC) | temp F | wind direction | speed knots | gust knots | rain 1hr in | rain 24hr in | rain mn in | humidity % | barometer mb |
| 20260507174555 | 61 | 108 | 0.9 | 5.2 | 0.00 | 0.00 | 0.00 | 82 | 1016.9 |
| 20260507173049 | 61 | 25 | 0.0 | 5.2 | 0.00 | 0.00 | 0.00 | 83 | 1016.3 |
| 20260507171550 | 60 | 326 | 0.9 | 6.1 | 0.00 | 0.00 | 0.00 | 80 | 1016.9 |
| 20260507170051 | 60 | 18 | 0.9 | 4.3 | 0.00 | 0.00 | 0.00 | 81 | 1016.8 |
| 20260507164547 | 60 | 80 | 0.9 | 7.0 | 0.00 | 0.07 | 0.00 | 82 | 1017.3 |
| 20260507163046 | 60 | 303 | 0.0 | 5.2 | 0.00 | 0.07 | 0.00 | 81 | 1017.4 |
| 20260507161545 | 60 | 303 | 1.7 | 6.1 | 0.00 | 0.07 | 0.00 | 82 | 1016.8 |
| 20260507160044 | 58 | 104 | 0.9 | 5.2 | 0.00 | 0.07 | 0.00 | 83 | 1016.3 |
| 20260507154547 | 58 | 316 | 1.7 | 6.1 | 0.00 | 0.09 | 0.00 | 84 | 1016.7 |
| 20260507153049 | 58 | 206 | 0.9 | 5.2 | 0.00 | 0.09 | 0.00 | 85 | 1017.1 |
| 20260507151540 | 58 | 1 | 1.7 | 6.1 | 0.00 | 0.09 | 0.00 | 86 | 1017.2 |
| 20260507150043 | 58 | 87 | 2.6 | 7.0 | 0.00 | 0.09 | 0.00 | 85 | 1016.8 |
| 20260507144538 | 58 | 21 | 0.9 | 7.8 | 0.00 | 0.09 | 0.00 | 86 | 1017.0 |
| 20260507143037 | 57 | 261 | 1.7 | 7.0 | 0.00 | 0.09 | 0.00 | 87 | 1017.3 |
| 20260507141537 | 57 | 56 | 0.9 | 5.2 | 0.00 | 0.09 | 0.00 | 88 | 1017.3 |
| 20260507140034 | 57 | 334 | 0.0 | 5.2 | 0.00 | 0.09 | 0.00 | 88 | 1017.2 |
| 20260507134541 | 57 | 359 | 1.7 | 8.7 | 0.00 | 0.09 | 0.00 | 89 | 1016.3 |
| 20260507133036 | 57 | 327 | 0.9 | 4.3 | 0.00 | 0.09 | 0.00 | 90 | 1017.0 |
| 20260507131550 | 57 | 49 | 0.9 | 5.2 | 0.00 | 0.09 | 0.00 | 90 | 1017.3 |
| 20260507130029 | 57 | 184 | 0.9 | 9.6 | 0.00 | 0.09 | 0.00 | 90 | 1016.5 |
| 20260507124528 | 57 | 357 | 0.0 | 7.0 | 0.00 | 0.09 | 0.00 | 90 | 1016.4 |
| 20260507123026 | 57 | 360 | 0.0 | 7.0 | 0.00 | 0.09 | 0.00 | 90 | 1015.8 |
| 20260507121525 | 57 | 125 | 0.0 | 3.5 | 0.00 | 0.09 | 0.00 | 89 | 1016.1 |
| 20260507120035 | 58 | 32 | 0.9 | 4.3 | 0.00 | 0.09 | 0.00 | 88 | 1015.7 |
| 20260507114521 | 58 | 239 | 0.0 | 4.3 | 0.00 | 0.09 | 0.00 | 88 | 1015.3 |
| 20260507113018 | 58 | 344 | 0.0 | 6.1 | 0.00 | 0.09 | 0.00 | 87 | 1015.2 |
| 20260507111515 | 58 | 18 | 0.9 | 4.3 | 0.00 | 0.09 | 0.00 | 86 | 1014.7 |
| 20260507110014 | 59 | 298 | 0.0 | 3.5 | 0.00 | 0.09 | 0.00 | 86 | 1014.9 |
| 20260507104513 | 59 | 38 | 0.9 | 4.3 | 0.00 | 0.09 | 0.00 | 86 | 1014.5 |
| 20260507103011 | 59 | 6 | 0.9 | 5.2 | 0.00 | 0.09 | 0.00 | 86 | 1014.5 |
| 20260507101509 | 59 | 7 | 0.0 | 4.3 | 0.00 | 0.09 | 0.00 | 86 | 1014.6 |
| 20260507100009 | 59 | 8 | 0.0 | 2.6 | 0.00 | 0.09 | 0.00 | 86 | 1014.4 |
| 20260507094507 | 60 | 286 | 0.0 | 1.7 | 0.00 | 0.09 | 0.00 | 86 | 1014.4 |
| 20260507093006 | 60 | 284 | 0.0 | 2.6 | 0.00 | 0.09 | 0.00 | 86 | 1014.0 |
| 20260507091505 | 60 | 314 | 0.0 | 2.6 | 0.00 | 0.09 | 0.00 | 86 | 1014.2 |
| 20260507090008 | 60 | 66 | 0.0 | 1.7 | 0.00 | 0.09 | 0.00 | 86 | 1014.4 |
| 20260507084509 | 60 | 282 | 0.0 | 1.7 | 0.00 | 0.09 | 0.00 | 87 | 1014.0 |
| 20260507083005 | 59 | 66 | 0.0 | 0.9 | 0.00 | 0.09 | 0.00 | 88 | 1014.2 |
| 20260507081502 | 60 | 35 | 0.0 | 0.9 | 0.00 | 0.09 | 0.00 | 88 | 1014.3 |
| 20260507080006 | 59 | 35 | 0.0 | 0.9 | 0.00 | 0.09 | 0.00 | 89 | 1014.3 |
| 20260507074501 | 60 | 35 | 0.0 | 0.0 | 0.00 | 0.09 | 0.00 | 89 | 1014.0 |
| 20260507073100 | 60 | 35 | 0.0 | 0.0 | 0.00 | 0.09 | 0.00 | 89 | 1014.1 |
| 20260507071600 | 60 | 35 | 0.0 | 0.9 | 0.00 | 0.09 | 0.00 | 88 | 1014.0 |
| 20260507070058 | 60 | 92 | 0.0 | 0.0 | 0.00 | 0.09 | 0.00 | 88 | 1013.6 |
| 20260507064555 | 60 | 83 | 0.0 | 2.6 | 0.00 | 0.09 | 0.00 | 87 | 1013.8 |
| 20260507063054 | 60 | 92 | 0.0 | 1.7 | 0.00 | 0.09 | 0.00 | 87 | 1013.7 |
| 20260507061553 | 60 | 97 | 0.0 | 1.7 | 0.00 | 0.09 | 0.00 | 87 | 1013.5 |
| 20260507060055 | 60 | 109 | 0.0 | 0.0 | 0.00 | 0.09 | 0.00 | 87 | 1013.6 |
| 20260507054626 | 61 | 82 | 0.0 | 0.0 | 0.00 | 0.09 | 0.00 | 87 | 1013.4 |
| 20260507053052 | 61 | 82 | 0.0 | 0.0 | 0.00 | 0.09 | 0.00 | 87 | 1013.2 |
| 20260507051547 | 61 | 264 | 0.0 | 1.7 | 0.00 | 0.09 | 0.00 | 87 | 1013.0 |
| 20260507050046 | 61 | 9 | 0.0 | 0.9 | 0.00 | 0.09 | 0.00 | 87 | 1013.2 |
| 20260507044549 | 61 | 285 | 0.0 | 0.9 | 0.00 | 0.09 | 0.09 | 86 | 1013.2 |
| 20260507043045 | 61 | 119 | 0.0 | 1.7 | 0.00 | 0.09 | 0.09 | 86 | 1013.1 |
| 20260507041545 | 61 | 59 | 0.0 | 1.7 | 0.00 | 0.09 | 0.09 | 87 | 1013.1 |
| 20260507040044 | 61 | 296 | 0.9 | 3.5 | 0.00 | 0.09 | 0.09 | 87 | 1012.9 |
| 20260507034551 | 61 | 303 | 0.0 | 3.5 | 0.00 | 0.09 | 0.09 | 88 | 1013.2 |
| 20260507033039 | 61 | 79 | 0.0 | 2.6 | 0.00 | 0.09 | 0.09 | 88 | 1012.6 |
| 20260507031541 | 61 | 297 | 0.0 | 3.5 | 0.00 | 0.09 | 0.09 | 88 | 1012.5 |
| 20260507030047 | 61 | 118 | 0.9 | 2.6 | 0.00 | 0.09 | 0.09 | 88 | 1012.7 |
| 20260507024541 | 61 | 317 | 0.0 | 3.5 | 0.00 | 0.09 | 0.09 | 88 | 1012.3 |
| 20260507023034 | 61 | 87 | 0.0 | 4.3 | 0.00 | 0.09 | 0.09 | 87 | 1012.5 |
| 20260507021531 | 61 | 57 | 0.0 | 3.5 | 0.00 | 0.09 | 0.09 | 86 | 1012.0 |
| 20260507020030 | 61 | 89 | 0.0 | 2.6 | 0.00 | 0.09 | 0.09 | 86 | 1011.9 |
| 20260507014543 | 61 | 265 | 0.9 | 3.5 | 0.00 | 0.09 | 0.09 | 87 | 1012.0 |
| 20260507013028 | 62 | 83 | 0.0 | 1.7 | 0.00 | 0.09 | 0.09 | 86 | 1011.4 |
| 20260507011528 | 62 | 324 | 0.0 | 0.9 | 0.00 | 0.09 | 0.09 | 86 | 1011.1 |
| 20260507010023 | 62 | 34 | 0.0 | 3.5 | 0.00 | 0.09 | 0.09 | 85 | 1010.9 |
| 20260507004523 | 62 | 285 | 0.9 | 4.3 | 0.00 | 0.09 | 0.09 | 85 | 1010.7 |
| 20260507003019 | 62 | 301 | 0.0 | 5.2 | 0.00 | 0.09 | 0.09 | 85 | 1010.7 |
| 20260507001524 | 63 | 336 | 0.0 | 3.5 | 0.00 | 0.09 | 0.09 | 85 | 1010.4 |
| 20260507000022 | 63 | 334 | 0.9 | 4.3 | 0.00 | 0.09 | 0.09 | 84 | 1010.3 |
| 20260506234515 | 63 | 7 | 0.9 | 5.2 | 0.00 | 0.09 | 0.09 | 84 | 1009.9 |
| 20260506233011 | 64 | 324 | 1.7 | 6.1 | 0.00 | 0.09 | 0.09 | 83 | 1010.0 |
| 20260506231507 | 65 | 7 | 1.7 | 7.8 | 0.00 | 0.09 | 0.09 | 81 | 1010.0 |
| 20260506230004 | 65 | 302 | 0.9 | 4.3 | 0.00 | 0.09 | 0.09 | 81 | 1009.7 |
| 20260506224503 | 66 | 291 | 1.7 | 6.1 | 0.00 | 0.09 | 0.09 | 79 | 1009.4 |
| 20260506223001 | 67 | 319 | 0.9 | 8.7 | 0.00 | 0.09 | 0.09 | 79 | 1009.4 |
| 20260506221600 | 67 | 35 | 3.5 | 12.2 | 0.00 | 0.09 | 0.09 | 78 | 1009.4 |
| 20260506220100 | 67 | 347 | 2.6 | 10.4 | 0.00 | 0.09 | 0.09 | 78 | 1009.1 |
| 20260506214557 | 68 | 336 | 1.7 | 7.0 | 0.00 | 0.09 | 0.09 | 77 | 1009.1 |
| 20260506213113 | 69 | 353 | 0.9 | 6.1 | 0.00 | 0.09 | 0.09 | 78 | 1009.0 |
| 20260506211556 | 70 | 335 | 2.6 | 12.2 | 0.00 | 0.09 | 0.09 | 76 | 1009.3 |
| 20260506210057 | 74 | 347 | 3.5 | 10.4 | 0.00 | 0.09 | 0.09 | 69 | 1008.9 |
| 20260506204554 | 77 | 297 | 2.6 | 7.8 | 0.00 | 0.09 | 0.09 | 70 | 1008.7 |
| 20260506203053 | 78 | 308 | 5.2 | 11.3 | 0.00 | 0.09 | 0.09 | 68 | 1008.7 |
| 20260506201552 | 78 | 266 | 1.7 | 10.4 | 0.00 | 0.09 | 0.09 | 74 | 1008.7 |
| 20260506200051 | 79 | 258 | 1.7 | 7.0 | 0.00 | 0.09 | 0.09 | 73 | 1008.6 |
| 20260506194555 | 77 | 322 | 1.7 | 9.6 | 0.00 | 0.09 | 0.09 | 76 | 1008.7 |
| 20260506193057 | 77 | 287 | 2.6 | 9.6 | 0.00 | 0.09 | 0.09 | 76 | 1008.7 |
| 20260506191548 | 78 | 343 | 3.5 | 7.8 | 0.00 | 0.09 | 0.09 | 77 | 1008.7 |
| 20260506190050 | 80 | 267 | 1.7 | 4.3 | 0.00 | 0.09 | 0.09 | 75 | 1008.6 |
| 20260506184544 | 79 | 224 | 0.9 | 4.3 | 0.00 | 0.09 | 0.09 | 79 | 1008.8 |
| 20260506183042 | 78 | 265 | 1.7 | 4.3 | 0.00 | 0.09 | 0.09 | 85 | 1009.1 |
| 20260506181539 | 75 | 355 | 0.9 | 4.3 | 0.00 | 0.09 | 0.09 | 85 | 1009.3 |
| 20260506180048 | 74 | 282 | 2.6 | 4.3 | 0.00 | 0.09 | 0.09 | 90 | 1009.3 |